Regional Weather Roundup
Issued by NWS

Home | Current Version | Previous Version | Graphics & Text | Print | Product List | Glossary On
Versions: 1 2 3 4 5 6 7 8 9 10 11 12 13 14 15 16 17 18 19 20 21 22 23 24 25 26 27 28 29 30 31 32 33 34 35 36 37 38 39 40 41 42 43 44 45 46 47 48 49 50
000
ASUS45 KSLC 031110
RWRUT

UTAH REGIONAL WEATHER ROUNDUP
NATIONAL WEATHER SERVICE SALT LAKE CITY UT
500 AM MDT SUN MAY 03 2015

UTZ001>011-023>025-031200-

NORTHERN UTAH

CITY           SKY/WX    TMP DP  RH WIND       PRES   REMARKS
BRIGHAM CITY   CLOUDY    65  37  35 S7        29.89S
HILL AFB       LGT RAIN  61  39  44 N9        29.94R
LOGAN          CLOUDY    58  40  51 W9G17     29.88S
OGDEN          CLOUDY    62  41  46 SE7       29.91R
PROVO AIRPORT  PTCLDY    50  37  62 S8        29.91S
SALT LAKE CITY CLOUDY    61  40  45 N10       29.88R
VERNAL         PTCLDY    49  31  49 NW7       29.95S
WENDOVER       CLOUDY    63  34  34 S5        29.86F
HEBER CITY     MOCLDY    43  34  70 CALM      29.97R
WEST JORDAN    PTCLDY    61  41  48 CALM      29.90S

$$

UTZ012>022-026-027-031200-

SOUTHERN/CENTRAL UTAH

CITY           SKY/WX    TMP DP  RH WIND       PRES   REMARKS
BLANDING       CLOUDY    55  32  41 CALM      30.08S
BRYCE CANYON   CLOUDY    39  30  70 W5        30.10S
CEDAR CITY     MOCLDY    51  27  39 CALM      29.97S
DELTA          PTCLDY    56  29  36 SW9       29.91S
HANKSVILLE     CLOUDY    61  27  27 CALM      29.91F
MILFORD        PTCLDY    52  26  36 SW13      29.93S
MOAB/CYNLANDS  CLEAR     61  29  29 CALM      29.88R
PRICE          PTCLDY    47  23  38 CALM      29.95S
ST GEORGE      PTSUNNY   66  28  24 S7        29.87R
KANAB          MOCLDY    43  32  65 E6        30.01S

$$

REGIONAL REPORTS     COLORADO/ARIZONA

CITY           SKY/WX    TMP DP  RH WIND       PRES   REMARKS
CRAIG, CO      PTCLDY    37  34  89 CALM      30.02S
GRAND JUNCTION PTCLDY    57  36  45 CALM      29.92R
RIFLE          MOCLDY    50  37  61 CALM      30.01R
MONTROSE       CLOUDY    56  32  40 SE10      30.01S
CORTEZ         PTCLDY    45  36  70 E6        30.04S
PAGE, AZ       CLOUDY    66  30  26 S7        29.93R
GRAND CANYON   MOCLDY    34  28  79 CALM      30.08S
KINGMAN        CLEAR     62  33  33 SW8       29.90R
FLAGSTAFF      MOCLDY    50  30  46 SW9       30.11S

$$

REGIONAL REPORTS    NEVADA/IDAHO/WYOMING

CITY           SKY/WX    TMP DP  RH WIND       PRES   REMARKS
LAS VEGAS, NV  CLEAR     73  29  19 S12       29.75S
ELY            PTCLDY    42  22  44 S9        29.99F
ELKO           MOCLDY    55  35  47 CALM      29.91S
POCATELLO, ID  PTCLDY    51  39  63 E5        29.90F
BURLEY         MOCLDY    51  38  60 CALM      29.86R
EVANSTON, WY   CLOUDY    47  29  49 SE8       30.02S
ROCK SPRINGS   CLOUDY    46  37  71 S6        30.01S
KEMMERER       PTCLDY    46  32  57 SW3       30.02S

$$


USA.gov is the U.S. government's official web portal to all federal, state and local government web resources and services.